Home   Weather   Neukölln   Past weeks
Flag for Germany

Past Weather in Neukölln, Berlin, Germany — February 2021

Currently: 70 °F. Passing clouds. (Weather station: Berlin-Schoenefeld, Germany). See more current weather

February 2021 Weather in Neukölln — Graph

°F

High & Low Weather Summary for February 2021

 TemperatureHumidityPressure
High66 °F (Feb 24, 3:20 pm)100% (Feb 2, 4:50 am)30.77 "Hg (Feb 2, 4:50 am)
Low5 °F (Feb 15, 5:50 am)42% (Feb 21, 2:50 pm)29.33 "Hg (Feb 3, 7:50 pm)
Average33 °F82%30.13 "Hg
* Reported Feb 1 12:20 am — Feb 28 11:50 pm, Neukölln. Weather by CustomWeather, © 2022

Note: Actual official high and low records may vary slightly from our data, if they occured in-between our weather recording intervals... More about our weather records

Neukölln Weather History for February 1, 2021

Scroll right to see more
 ConditionsComfort  
Time TempWeatherWind HumidityBarometerVisibility
12:20 am
Mon, Feb 1
16 °FClear.5 mph93%29.59 "Hg10 mi
12:50 am16 °FClear.6 mph93%29.59 "Hg10 mi
1:20 am16 °FClear.7 mph93%29.59 "Hg10 mi
1:50 am14 °FClear.7 mph92%29.59 "Hg10 mi
2:20 am14 °FClear.5 mph92%29.59 "Hg10 mi
2:50 am14 °FClear.5 mph92%29.56 "Hg10 mi
3:20 am14 °FClear.6 mph92%29.56 "Hg10 mi
3:50 am16 °FClear.5 mph86%29.56 "Hg10 mi
4:20 am14 °FClear.6 mph92%29.53 "Hg10 mi
4:50 am14 °FClear.6 mph92%29.53 "Hg10 mi
5:20 am16 °FClear.7 mph86%29.53 "Hg10 mi
5:50 am14 °FClear.7 mph92%29.53 "Hg10 mi
6:50 am16 °FClear.6 mph86%29.53 "Hg10 mi
7:20 am16 °FClear.7 mph93%29.53 "Hg10 mi
7:50 am18 °FSunny.8 mph86%29.53 "Hg10 mi
8:50 am19 °FSunny.8 mph79%29.53 "Hg10 mi
9:20 am21 °FSunny.10 mph80%29.53 "Hg10 mi
9:50 am21 °FSunny.10 mph80%29.53 "Hg10 mi
10:20 am23 °FSunny.10 mph74%29.50 "Hg10 mi
10:50 am25 °FSunny.13 mph69%29.50 "Hg10 mi
11:20 am27 °FSunny.14 mph64%29.50 "Hg10 mi
11:50 am28 °FSunny.13 mph64%29.50 "Hg10 mi
12:20 pm30 °FSunny.13 mph59%29.50 "Hg10 mi
12:50 pm30 °FSunny.14 mph59%29.50 "Hg10 mi
1:20 pm30 °FSunny.13 mph55%29.47 "Hg10 mi
1:50 pm30 °FSunny.13 mph59%29.47 "Hg10 mi
2:20 pm32 °FSunny.13 mph55%29.47 "Hg10 mi
2:50 pm32 °FSunny.13 mph55%29.47 "Hg10 mi
3:20 pm32 °FSunny.12 mph55%29.47 "Hg10 mi
3:50 pm30 °FSunny.10 mph59%29.47 "Hg10 mi
4:20 pm30 °FPassing clouds.9 mph64%29.47 "HgN/A
4:50 pm30 °FPassing clouds.6 mph64%29.47 "HgN/A
5:20 pm30 °FClear.6 mph69%29.47 "Hg10 mi
5:50 pm30 °FSnow flurries. Passing clouds.6 mph69%29.47 "HgN/A
6:20 pm30 °FPassing clouds.6 mph69%29.47 "HgN/A
6:50 pm32 °FPassing clouds.7 mph64%29.50 "HgN/A
7:20 pm32 °FPassing clouds.7 mph64%29.50 "HgN/A
7:50 pm30 °FPassing clouds.7 mph69%29.50 "HgN/A
8:50 pm30 °FClear.7 mph69%29.50 "Hg10 mi
9:20 pm30 °FPassing clouds.8 mph69%29.50 "HgN/A
9:50 pm30 °FPassing clouds.8 mph69%29.50 "HgN/A
10:20 pm30 °FLight snow. Passing clouds.8 mph69%29.50 "HgN/A
10:50 pm30 °FPassing clouds.8 mph69%29.50 "HgN/A
11:20 pm30 °FPassing clouds.8 mph75%29.50 "HgN/A
11:50 pm30 °FPassing clouds.6 mph75%29.50 "HgN/A
Weather by CustomWeather, © 2022

See weather overview